sat.trackr.live / text

‹ back to catalog

STARLINK-11461 [DTC]

NORAD 62421 · 2024-249N

PAYLOAD ACTIVE UNKNOWN

§ Identity

Operator
Country
US
Launch date
2024-12-23
Launch site
AFETR
Launch vehicle
Mass (kg)
RCS (m²)

Purposes: comms

External: N2YO · Heavens-Above · Gunter

§ Orbital elements

Epoch: 2026-05-25T03:24:44.078112Z

Period
91.66 min
Inclination
43.0014°
Eccentricity
0.0003458
Mean motion
15.70973101 rev/d
Perigee alt
353.8 km
Apogee alt
358.4 km
Semi-major
6,734.3 km
B*
2.0571e-3
RAAN
66.9117°
Arg perigee
265.2370°
Mean anomaly
94.8103°
Rev number
8,150

§ Raw data

STARLINK-11461 [DTC]1 62421U 24249N   26145.14217683  .00273949  00000+0  20571-2 0  99962 62421  43.0014  66.9117 0003458 265.2370  94.8103 15.70973101 81507

JSON: /api/v1/satellites/62421 · /tle

For live sub-satellite position, see the globe view (requires WebGL).

§ Visibility from observer

Set your observer location to see the next 7 days of passes ≥ 10°. The values pass through the URL so the page stays shareable.

No JS? Fill the form by hand. The geolocation button needs JavaScript.